Voltar ao catálogo

ARIANE 44LP DEB

AtivoHEO
NORAD 25539·DEBRIS·🇫🇷 France

Lançado Dec 11, 1988 de Guiana Space Centre

Loading…

Próximas Passagens (próximas 24 horas)

TLE

AtualizadoSource: Space-Track

Época: Sep 14, 2026, 05:51 UTC

1 25539U 88109F   26257.24390678  .00002316  00000-0  57203-2 0  9992
2 25539   7.1079 271.5067 6810967 329.8717   4.2609  2.78798074263523

Acompanhe ARIANE 44LP DEB em tempo real com AllMySat

Download on the App Store